Terug naar catalogus

STARLINK-38249

ActiefCommunicatieSSO
NORAD 100221·PAYLOAD·🇺🇸 United States

Gelanceerd Aug 4, 2026 vanaf Vandenberg Space Force Base

Loading…

Volgende Passages (komende 24 uur)

TLE

VersSource: Space-Track

Epoch: Sep 13, 2026, 15:55 UTC

1 A0221U 26177J   26256.66321577 -.00336563  00000-0 -34936-2 0  9991
2 A0221  97.2830 307.5736 0001175 214.2565 145.8620 15.65614007  7385

Volg STARLINK-38249 in realtime met AllMySat

Download on the App Store